[Iaude] MPEC X51: 2019 XV [a=1.10,e=0.10,i=0.3,H=29.0]

mpec at marsden.cfa.harvard.edu mpec at marsden.cfa.harvard.edu
Wed Dec 4 18:34:26 EST 2019


M.P.E.C. 2019-X51                              Issued 2019 December 4, 23:33 UT

     The Minor Planet Electronic Circulars contain information on unusual
         minor planets and routine data on comets.  They are published
    on behalf of Division F of the International Astronomical Union by the
          Minor Planet Center, Smithsonian Astrophysical Observatory,
                          Cambridge, MA 02138, U.S.A.

             Prepared using the Tamkin Foundation Computer Network

                              MPC at CFA.HARVARD.EDU
            URL https://www.minorplanetcenter.net/    ISSN 1523-6714

                                    2019 XV                                     


Observations:
     K19X00V* C2019 12 03.31572 03 39 48.06 +27 54 02.3          20.9 GVEX051G96
     K19X00V  C2019 12 03.32140 03 39 50.21 +27 54 08.5                VEX051G96
     K19X00V  C2019 12 03.32709 03 39 52.30 +27 54 13.6          21.2 GVEX051G96
     K19X00V  C2019 12 03.42389 03 40 31.90 +27 55 15.3                VEX051I52
     K19X00V  C2019 12 03.42556 03 40 32.65 +27 55 14.8          20.9 GVEX051I52
     K19X00V  C2019 12 03.42723 03 40 33.45 +27 55 15.9                VEX051I52
     K19X00V  C2019 12 03.42890 03 40 34.20 +27 55 17.2          21.2 GVEX051I52
     K19X00V  C2019 12 04.12760 03 46 55.59 +28 08 07.9          20.7 VVEX051033
     K19X00V  C2019 12 04.12986 03 46 56.73 +28 08 08.8          20.2 VVEX051033
     K19X00V  C2019 12 04.13210 03 46 57.78 +28 08 09.5          20.5 VVEX051033
     K19X00V NC2019 12 04.77846703 53 06.97 +28 22 08.2          21.4 GVEX051L01
     K19X00V bC2019 12 04.78508103 53 09.48 +28 22 19.9          21.3 GVEX051L01
     K19X00V KC2019 12 04.84753 03 53 33.23 +28 23 55.7          20.9 RVEX051K51
     K19X00V KC2019 12 04.85089 03 53 34.42 +28 24 00.7          20.7 RVEX051K51
     K19X00V KC2019 12 04.85425 03 53 35.57 +28 24 05.7          20.3 RVEX051K51

Observer details:
033 Karl Schwarzschild Observatory, Tautenburg.  Observers S. Melnikov, U. Laux,
    B. Stecklum.  Measurer B. Stecklum.  1.34-m f/3 Schmidt + CCD.
G96 Mt. Lemmon Survey.  Observer T. A. Pruyne.  Measurers E. J. Christensen, G. 
   A. Farneth, D. C. Fuls, A. R. Gibbs, A. D. Grauer, H. Groeller, R. A. 
   Kowalski, S. M. Larson, G. J. Leonard, T. A. Pruyne, D. Rankin, R. L. Seaman,
    F. C. Shelly, K. W. Wierzchos.  1.5-m reflector + 10K CCD.
I52 Steward Observatory, Mt. Lemmon Station.  Observer D. Rankin.  Measurers E. 
   J. Christensen, G. A. Farneth, D. C. Fuls, A. R. Gibbs, A. D. Grauer, H. 
   Groeller, R. A. Kowalski, S. M. Larson, G. J. Leonard, T. A. Pruyne, D. 
   Rankin, R. L. Seaman, F. C. Shelly, K. W. Wierzchos.  1.0-m reflector + CCD.
K51 Osservatorio del Celado, Castello Tesino.  Observers G. Favero, R. Furgoni. 
    Measurer R. Furgoni.  0.80-m f/4 reflector + CCD.
L01 Visnjan Observatory, Tican.  Observers K. Korlevic, F. Valentine.  Measurer 
   K. Korlevic.  1.0-m f/2.9 reflector + CCD.

Orbital elements:
2019 XV                                                  Earth MOID = 0.0016 AU
Epoch 2020 May 31.0 TT = JDT 2459000.5                  Bell
M 176.14665              (2000.0)            P               Q
n   0.85330612     Peri.  356.83787     +0.73517365     -0.67786529
a   1.1008618      Node    45.84018     +0.62207264     +0.67212588
e   0.0977361      Incl.    0.34219     +0.26934243     +0.29790175
P   1.16           H   29.0           G   0.15           U   6
Residuals in seconds of arc
191203 G96  0.0   0.1+    191203 I52  0.1+  0.3-    191204 L01  0.2-  0.3+
191203 G96  0.5+  0.5+    191203 I52  0.0   0.4+    191204 L01  1.3-  0.1-
191203 G96  0.1-  0.1+    191204 033  0.1-  0.3-    191204 K51  0.5+  0.2+
191203 I52  0.3-  0.3+    191204 033  0.5+  0.2-    191204 K51  0.6+  0.1+
191203 I52  0.4-  0.8-    191204 033  0.1+  0.4-    191204 K51  0.1+  0.1+

Ephemeris:
2019 XV                  a,e,i = 1.10, 0.10, 0                   q = 0.9933
Date    TT    R. A. (2000) Decl.     Delta      r    Elong.  Phase     V
2019 11 04    20 22 28.4 -22 39 28   0.01813 0.9894    81.6    97.4    23.8
...
2019 11 19    23 46 04.2 +03 55 24   0.01003 0.9938   122.2    57.4    21.1
...
2019 11 27    02 21 24.4 +22 49 54   0.01255 0.9983   155.1    24.6    20.6
...
2019 12 03    03 36 58.9 +27 46 56   0.01723 1.0026   165.7    14.0    21.0
2019 12 04    03 46 10.2 +28 10 16   0.01814 1.0033   166.7    13.1    21.1
2019 12 05    03 54 35.2 +28 29 09   0.01908 1.0042   167.4    12.4    21.1
...
2019 12 11    04 32 32.6 +29 23 22   0.02522 1.0095   169.5    10.2    21.7
...
2019 12 19    05 02 10.6 +29 24 08   0.03456 1.0178   168.7    10.9    22.4
...
2020 01 03    05 31 45.7 +28 29 50   0.05623 1.0367   161.3    17.7    23.8

A. U. Tomatic                (C) Copyright 2019 MPC           M.P.E.C. 2019-X51




More information about the Iaude mailing list